[Iaude] MPEC A154: 2024 AZ3 [a=1.25,e=0.34,i=5.6,H=28.8]
    mpec at marsden.cfa.harvard.edu 
    mpec at marsden.cfa.harvard.edu
       
    Sat Jan 13 10:43:35 EST 2024
    
    
  
M.P.E.C. 2024-A154                             Issued 2024 January 13, 15:41 UT
     The Minor Planet Electronic Circulars contain information on unusual
         minor planets, routine data on comets and natural satellites,
         and occasional editorial announcements.  They are published
    on behalf of Division F of the International Astronomical Union by the
          Minor Planet Center, Smithsonian Astrophysical Observatory,
                          Cambridge, MA 02138, U.S.A.
			  
             Prepared using the Tamkin Foundation Computer Network
                              MPC at CFA.HARVARD.EDU
            URL https://www.minorplanetcenter.net/    ISSN 1523-6714
                                    2024 AZ3                                    
Observations:
     K24A03Z* C2024 01 12.87330 06 55 35.63 +48 39 26.4          19.8 GVEA154K88
     K24A03Z  C2024 01 12.87630 06 55 32.36 +48 40 08.3          19.6 GVEA154K88
     K24A03Z KC2024 01 12.89286 06 55 14.01 +48 44 00.3          19.6 GVEA154K88
     K24A03Z KC2024 01 12.89612 06 55 10.39 +48 44 46.0          20.3 GVEA154K88
     K24A03Z KC2024 01 12.92625406 54 41.72 +48 52 21.9          20.2 VSEA154L01
     K24A03Z KC2024 01 12.92823106 54 39.42 +48 52 50.1          20.3 VSEA154L01
     K24A03Z KC2024 01 12.92971006 54 37.60 +48 53 11.1          20.5 VSEA154L01
     K24A03Z KC2024 01 12.93119006 54 35.84 +48 53 31.8          20.4 VSEA154L01
     K24A03Z IC2024 01 12.93267206 54 34.10 +48 53 52.7          20.3 VSEA154L01
     K24A03Z KC2024 01 12.95992706 54 03.82 +49 00 38.5          19.6 GVEA154104
     K24A03Z KC2024 01 12.96948006 53 51.99 +49 02 54.5          19.9 GVEA154104
     K24A03Z KC2024 01 12.97343606 53 47.02 +49 03 50.6          19.9 GVEA154104
     K24A03Z KC2024 01 13.02026 06 52 41.42 +49 13 25.8          19.5 GVEA154K88
     K24A03Z KC2024 01 13.02350 06 52 37.39 +49 14 10.5          19.6 GVEA154K88
     K24A03Z KC2024 01 13.11531306 50 47.03 +49 37 05.0                VEA154204
     K24A03Z KC2024 01 13.12209906 50 38.31 +49 38 42.6          19.7 GVEA154204
     K24A03Z KC2024 01 13.12808406 50 30.67 +49 40 08.5                VEA154204
     K24A03Z KC2024 01 13.13397706 50 23.15 +49 41 33.3                VEA154204
     K24A03Z KB2024 01 13.54624 06 41 43.36 +52 22 25.3          21.3 VqEA154Q06
     K24A03Z KB2024 01 13.55229 06 41 27.36 +52 25 25.6          20.6 VqEA154Q06
Observer details:
104 San Marcello Pistoiese.  Observers P. Bacci, M. Maestripieri.  Measurers
    P. Bacci, L. Tesi, G. Fagioli.  0.60-m F4 Reflector + CCD.
204 Schiaparelli Observatory.  Observers L. Buzzi, G. Galli.  0.84-m f/3.5
    reflector + CCD.
K88 GINOP-KHK, Piszkesteto.  Observer K. Sarneczky.  Measurers T. Maroti,
    K. Sarneczky.  0.60-m Schmidt + CCD.
L01 Visnjan Observatory, Tican.  Observers K. Korlevic, L. Poropat.  Measurer
    K. Korlevic.  1.0-m f/2.9 reflector + CCD.
Q06 Tarui Observatory, Tarui.  Observer H. Watanabe.  0.35-m f/1.9 Schmidt-
    Cassegrain + CMO.
Orbital elements:
2024 AZ3                                                 Earth MOID = 0.0019 AU
Epoch 2023 Sept. 13.0 TT = JDT 2460200.5                Veres                   
M 235.76136              (2000.0)            P               Q                  
n   0.70855699     Peri.  248.76547     -0.99420723     +0.06011147             
a   1.2460999      Node   294.58978     -0.01565475     -0.90112730             
e   0.3418350      Incl.    5.62315     -0.10633400     -0.42936721             
P   1.39           H   28.88          G   0.15           U   7                  
Residuals in seconds of arc
240112 K88  0.9-  1.6+    240112 L01  0.2-  0.3+    240113 204  0.0   0.1-
240112 K88  0.9-  1.4+    240112 L01  0.1+  0.1+    240113 204  0.2-  0.3+
240112 K88  0.8-  0.9+    240112 104  0.3-  0.0     240113 204  0.1-  0.2+
240112 K88  0.4-  0.9+    240112 104  0.3+  0.2-    240113 204  0.2-  0.1+
240112 L01  0.1-  0.7+    240112 104  0.2+  0.3-    240113 Q06  0.3+  0.6+
240112 L01  0.4+  0.7+    240113 K88  0.7+  0.4-    240113 Q06  0.1-  0.6-
240112 L01  0.2-  0.7+    240113 K88  0.6+  0.3-
Ephemeris:
2024 AZ3                 a,e,i = 1.25, 0.34, 6                   q = 0.8201
Date    TT    R. A. (2000) Decl.     Delta      r    Elong.  Phase     V
2023 12 14    07 11 01.5 +39 27 51   0.1941  1.1592   151.8    23.6    26.8
...
2023 12 29    07 15 16.6 +41 15 00   0.09755 1.0753   159.6    18.6    24.9
...
2024 01 06    07 13 45.9 +42 34 43   0.05049 1.0309   159.9    19.1    23.4
...
2024 01 12    07 02 58.0 +46 23 01   0.01634 0.9983   154.8    24.8    21.1
2024 01 13    06 53 33.7 +49 09 06   0.01073 0.9930   151.3    28.4    20.3
2024 01 14    06 15 54.7 +57 23 49   0.0052200.9876   141.0    38.8    19.0
...
2024 01 20    19 21 47.8 -39 39 33   0.02910 0.9569    21.4   158.0    31.4
...
2024 01 28    19 18 22.5 -41 04 09   0.07523 0.9192    28.4   149.4    31.4
...
2024 02 12    19 27 16.6 -39 48 52   0.1678  0.8624    38.7   134.3    30.8
M. P. C. Staff               (C) Copyright 2024 MPC           M.P.E.C. 2024-A154
    
    
More information about the Iaude
mailing list